OK,40,49,1035,40,2014-10-01T01:40:00,0,28072805,195525
OK,40,49,1035,40,2014-10-01T01:45:00,0,28073252,195525
OK,40,49,1035,40,2014-10-01T01:50:00,0,28073700,195525
OK,40,49,1035,40,2014-10-01T01:55:00,0,28074018,195525
OK,40,49,1035,40,2014-10-01T02:05:00,0,28074907,195525
OK,40,49,1035,40,2014-10-01T02:10:00,0,28075356,195525
OK,40,49,1035,40,2014-10-01T02:15:00,0,28075805,195525
OK,40,49,1035,40,2014-10-01T02:20:00,0,28076188,195525
OK,40,49,1035,40,2014-10-01T02:25:00,0,28076637,195525
OK,40,49,1035,40,2014-10-01T02:30:00,0,28077086,195525
OK,40,49,1035,40,2014-10-01T02:35:00,0,28077535,195525
OK,40,49,1035,40,2014-10-01T02:40:00,0,28077938,195525
OK,40,49,1035,40,2014-10-01T02:45:00,0,28078387,195525
OK,40,49,1035,40,2014-10-01T02:50:00,0,28078832,195525
OK,40,49,1035,40,2014-10-01T02:55:00,0,28079280,195525
OK,40,49,1035,40,2014-10-01T03:00:00,0,28079723,195525
OK,40,49,1035,40,2014-10-01T03:05:00,0,28080172,195525
OK,40,49,1035,40,2014-10-01T03:10:00,0,28080506,195525
OK,53,37,1035,53,2014-10-01T03:15:00,2,28080955,195525
OK,55,35,1035,55,2014-10-01T03:20:00,1,28081404,195525
OK,55,35,1035,55,2014-10-01T03:25:00,0,28081851,195525
OK,55,35,1035,55,2014-10-01T03:30:00,0,28082300,195525
OK,55,35,1035,55,2014-10-01T03:35:00,0,28082733,195525
OK,55,35,1035,55,2014-10-01T03:40:00,0,28083165,195525
OK,50,39,1035,50,2014-10-01T03:45:00,2,28083614,195525
OK,48,40,1035,48,2014-10-01T03:50:00,2,28084063,195525
OK,48,40,1035,48,2014-10-01T03:55:00,0,28084504,195525
OK,48,40,1035,48,2014-10-01T04:00:00,0,28084929,195525
OK,48,40,1035,48,2014-10-01T04:05:00,0,28085378,195525
OK,48,40,1035,48,2014-10-01T04:10:00,0,28085823,195525
OK,48,40,1035,48,2014-10-01T04:15:00,0,28086272,195525
OK,48,40,1035,48,2014-10-01T04:20:00,0,28086714,195525
OK,38,51,1035,38,2014-10-01T04:25:00,1,28087163,195525
OK,38,51,1035,38,2014-10-01T04:30:00,0,28087608,195525
OK,38,51,1035,38,2014-10-01T04:35:00,0,28088057,195525
OK,96,20,1035,96,2014-10-01T04:40:00,1,28088481,195525
OK,96,20,1035,96,2014-10-01T04:45:00,1,28088930,195525
OK,130,15,1035,130,2014-10-01T04:50:00,1,28089360,195525
OK,130,15,1035,130,2014-10-01T05:00:00,0,28090258,195525
OK,130,15,1035,130,2014-10-01T05:05:00,0,28090602,195525
OK,130,15,1035,130,2014-10-01T05:10:00,0,28091051,195525
OK,53,37,1035,53,2014-10-01T05:15:00,1,28091500,195525
OK,108,18,1035,108,2014-10-01T05:20:00,4,28091917,195525
OK,108,18,1035,108,2014-10-01T05:25:00,4,28092366,195525
OK,100,19,1035,100,2014-10-01T05:30:00,2,28092810,195525
OK,98,20,1035,98,2014-10-01T05:35:00,4,28093251,195525
OK,86,22,1035,86,2014-10-01T05:40:00,4,28093682,195525
OK,101,19,1035,101,2014-10-01T05:45:00,4,28094131,195525
OK,107,18,1035,107,2014-10-01T05:50:00,3,28094542,195525
OK,131,15,1035,131,2014-10-01T05:55:00,2,28094987,195525
OK,124,15,1035,124,2014-10-01T06:00:00,9,28095434,195525
OK,128,15,1035,128,2014-10-01T06:05:00,7,28095883,195525
OK,87,22,1035,87,2014-10-01T06:10:00,3,28096296,195525
OK,91,21,1035,91,2014-10-01T06:15:00,4,28096745,195525
OK,130,15,1035,130,2014-10-01T06:20:00,1,28097179,195525
OK,113,17,1035,113,2014-10-01T06:25:00,2,28097628,195525
OK,113,17,1035,113,2014-10-01T06:30:00,3,28098077,195525
OK,84,23,1035,84,2014-10-01T06:35:00,2,28098514,195525
OK,99,19,1035,99,2014-10-01T06:40:00,1,28098958,195525
OK,99,19,1035,99,2014-10-01T06:45:00,0,28099406,195525
OK,44,44,1035,44,2014-10-01T06:50:00,1,28099749,195525
OK,44,44,1035,44,2014-10-01T06:55:00,1,28100198,195525
OK,44,44,1035,44,2014-10-01T07:00:00,0,28100505,195525
OK,91,21,1035,91,2014-10-01T07:10:00,2,28101325,195525
OK,41,47,1035,41,2014-10-01T07:20:00,1,28102210,195525
OK,41,47,1035,41,2014-10-01T07:25:00,0,28102659,195525
OK,41,47,1035,41,2014-10-01T07:30:00,0,28103087,195525
OK,45,43,1035,45,2014-10-01T07:35:00,1,28103533,195525
OK,82,23,1035,82,2014-10-01T07:40:00,4,28103978,195525
OK,82,23,1035,82,2014-10-01T07:45:00,4,28104423,195525
OK,51,38,1035,51,2014-10-01T07:50:00,0,28104864,195525
OK,51,38,1035,51,2014-10-01T07:55:00,0,28105309,195525
OK,83,23,1035,83,2014-10-01T08:00:00,1,28105749,195525
OK,83,23,1035,83,2014-10-01T08:05:00,1,28106198,195525
OK,83,23,1035,83,2014-10-01T08:10:00,0,28106635,195525
OK,85,23,1035,85,2014-10-01T08:15:00,3,28107041,195525
OK,84,23,1035,84,2014-10-01T08:20:00,4,28107473,195525
OK,67,29,1035,67,2014-10-01T08:25:00,2,28107922,195525
OK,51,38,1035,51,2014-10-01T08:30:00,1,28108361,195525
OK,61,32,1035,61,2014-10-01T08:35:00,2,28108810,195525
OK,61,32,1035,61,2014-10-01T08:40:00,2,28109238,195525
OK,86,22,1035,86,2014-10-01T08:45:00,1,28109687,195525
OK,86,22,1035,86,2014-10-01T08:50:00,0,28110030,195525
OK,44,44,1035,44,2014-10-01T09:00:00,3,28110902,195525
OK,44,44,1035,44,2014-10-01T09:05:00,3,28111351,195525
OK,45,43,1035,45,2014-10-01T09:10:00,2,28111780,195525
OK,45,43,1035,45,2014-10-01T09:15:00,2,28112229,195525
OK,38,51,1035,38,2014-10-01T09:20:00,3,28112570,195525
OK,93,21,1035,93,2014-10-01T09:30:00,3,28113443,195525
OK,93,21,1035,93,2014-10-01T09:35:00,3,28113892,195525
OK,98,20,1035,98,2014-10-01T09:40:00,0,28114324,195525
OK,98,20,1035,98,2014-10-01T09:45:00,0,28114773,195525
OK,85,23,1035,85,2014-10-01T09:50:00,5,28115127,195525
OK,85,23,1035,85,2014-10-01T10:00:00,0,28115988,195525
OK,64,30,1035,64,2014-10-01T10:05:00,2,28116437,195525
OK,64,30,1035,64,2014-10-01T10:10:00,3,28116845,195525
OK,31,63,1035,31,2014-10-01T10:15:00,1,28117294,195525
OK,49,40,1035,49,2014-10-01T10:20:00,1,28117719,195525
OK,72,27,1035,72,2014-10-01T10:25:00,2,28118168,195525
OK,96,20,1035,96,2014-10-01T10:30:00,1,28118613,195525
OK,35,56,1035,35,2014-10-01T10:35:00,1,28119060,195525
OK,35,56,1035,35,2014-10-01T10:40:00,1,28119504,195525
OK,114,17,1035,114,2014-10-01T10:45:00,2,28119952,195525
OK,42,46,1035,42,2014-10-01T10:50:00,7,28120400,195525
OK,41,47,1035,41,2014-10-01T10:55:00,6,28120849,195525
OK,52,37,1035,52,2014-10-01T11:00:00,3,28121232,195525
OK,35,56,1035,35,2014-10-01T11:05:00,3,28121681,195525
OK,33,59,1035,33,2014-10-01T11:10:00,0,28122119,195525
OK,67,29,1035,67,2014-10-01T11:15:00,1,28122568,195525
OK,67,29,1035,67,2014-10-01T11:20:00,1,28123009,195525
OK,99,19,1035,99,2014-10-01T11:25:00,3,28123458,195525
OK,95,20,1035,95,2014-10-01T11:30:00,2,28123890,195525
OK,92,21,1035,92,2014-10-01T11:35:00,1,28124339,195525
OK,92,21,1035,92,2014-10-01T11:40:00,0,28124741,195525
OK,92,21,1035,92,2014-10-01T11:45:00,0,28125190,195525
OK,92,21,1035,92,2014-10-01T11:50:00,0,28125619,195525
OK,92,21,1035,92,2014-10-01T11:55:00,0,28126068,195525
OK,53,37,1035,53,2014-10-01T12:00:00,2,28126420,195525
OK,37,53,1035,37,2014-10-01T12:10:00,3,28127318,195525
OK,42,46,1035,42,2014-10-01T12:15:00,2,28127767,195525
OK,47,41,1035,47,2014-10-01T12:20:00,0,28128195,195525
OK,69,28,1035,69,2014-10-01T12:25:00,2,28128644,195525
OK,69,28,1035,69,2014-10-01T12:30:00,2,28129079,195525
OK,126,15,1035,126,2014-10-01T12:35:00,1,28129528,195525
OK,126,15,1035,126,2014-10-01T12:40:00,3,28129962,195525
OK,128,15,1035,128,2014-10-01T12:45:00,1,28130411,195525
OK,40,49,1035,40,2014-10-01T12:50:00,1,28130839,195525
OK,107,18,1035,107,2014-10-01T12:55:00,3,28131288,195525
OK,120,16,1035,120,2014-10-01T13:00:00,4,28131725,195525
OK,120,16,1035,120,2014-10-01T13:05:00,2,28132174,195525
OK,118,16,1035,118,2014-10-01T13:10:00,4,28132612,195525
OK,119,16,1035,119,2014-10-01T13:15:00,5,28133059,195525
OK,101,19,1035,101,2014-10-01T13:20:00,2,28133497,195525
OK,151,13,1035,151,2014-10-01T13:25:00,2,28133946,195525
OK,231,8,1035,231,2014-10-01T13:30:00,1,28134385,195525
OK,231,8,1035,231,2014-10-01T13:35:00,0,28134834,195525
OK,231,8,1035,231,2014-10-01T13:40:00,0,28135253,195525
OK,250,7,1035,250,2014-10-01T13:45:00,2,28135702,195525
OK,252,7,1035,252,2014-10-01T13:50:00,4,28136139,195525
OK,257,7,1035,257,2014-10-01T13:55:00,3,28136588,195525
OK,120,16,1035,120,2014-10-01T14:00:00,1,28137028,195525
OK,120,16,1035,120,2014-10-01T14:05:00,1,28137477,195525
OK,114,17,1035,114,2014-10-01T14:10:00,2,28137911,195525
OK,119,16,1035,119,2014-10-01T14:15:00,2,28138360,195525
OK,95,20,1035,95,2014-10-01T14:20:00,2,28138788,195525
OK,59,33,1035,59,2014-10-01T14:25:00,4,28139237,195525
OK,44,44,1035,44,2014-10-01T14:30:00,3,28139648,195525
OK,218,9,1035,218,2014-10-01T14:35:00,3,28140097,195525
OK,218,9,1035,218,2014-10-01T14:40:00,3,28140539,195525
OK,87,22,1035,87,2014-10-01T14:45:00,0,28140988,195525
OK,87,22,1035,87,2014-10-01T14:50:00,0,28141414,195525
OK,112,17,1035,112,2014-10-01T14:55:00,1,28141863,195525
OK,111,17,1035,111,2014-10-01T15:00:00,2,28142291,195525
OK,111,17,1035,111,2014-10-01T15:05:00,1,28142740,195525
OK,111,17,1035,111,2014-10-01T15:10:00,0,28143167,195525
OK,97,20,1035,97,2014-10-01T15:15:00,1,28143616,195525
OK,97,20,1035,97,2014-10-01T15:20:00,1,28144064,195525
OK,97,20,1035,97,2014-10-01T15:25:00,0,28144513,195525
OK,97,20,1035,97,2014-10-01T15:30:00,0,28144934,195525
OK,97,20,1035,97,2014-10-01T15:35:00,0,28145348,195525
OK,97,20,1035,97,2014-10-01T15:40:00,0,28145797,195525
OK,97,20,1035,97,2014-10-01T15:45:00,0,28146246,195525
OK,97,20,1035,97,2014-10-01T15:50:00,0,28146695,195525
OK,97,20,1035,97,2014-10-01T15:55:00,0,28147103,195525
OK,97,20,1035,97,2014-10-01T16:00:00,0,28147547,195525
OK,32,61,1035,32,2014-10-01T16:05:00,0,28147996,195525
OK,34,57,1035,34,2014-10-01T16:10:00,2,28148397,195525
OK,36,54,1035,36,2014-10-01T16:20:00,0,28149285,195525
OK,36,54,1035,36,2014-10-01T16:25:00,0,28149734,195525
OK,59,33,1035,59,2014-10-01T16:30:00,1,28150160,195525
OK,59,33,1035,59,2014-10-01T16:35:00,1,28150609,195525
OK,59,33,1035,59,2014-10-01T16:40:00,0,28151027,195525
OK,51,38,1035,51,2014-10-01T16:45:00,1,28151476,195525
OK,47,41,1035,47,2014-10-01T16:50:00,2,28151925,195525
OK,37,53,1035,37,2014-10-01T17:00:00,1,28152374,195525
OK,37,53,1035,37,2014-10-01T17:05:00,0,28152820,195525
OK,37,53,1035,37,2014-10-01T17:10:00,0,28153267,195525
OK,37,53,1035,37,2014-10-01T17:15:00,0,28153716,195525
OK,37,53,1035,37,2014-10-01T17:20:00,0,28154126,195525
OK,37,53,1035,37,2014-10-01T17:25:00,0,28154575,195525
OK,37,53,1035,37,2014-10-01T17:30:00,0,28155017,195525
OK,37,53,1035,37,2014-10-01T17:35:00,0,28155465,195525
OK,37,53,1035,37,2014-10-01T17:40:00,0,28155883,195525
OK,35,56,1035,35,2014-10-01T17:45:00,1,28156332,195525
OK,34,57,1035,34,2014-10-01T17:50:00,2,28156780,195525
OK,34,57,1035,34,2014-10-01T17:55:00,1,28157219,195525
OK,34,57,1035,34,2014-10-01T18:00:00,0,28157649,195525
OK,34,57,1035,34,2014-10-01T18:05:00,0,28158097,195525
OK,42,46,1035,42,2014-10-01T18:10:00,1,28158541,195525
OK,42,46,1035,42,2014-10-01T18:15:00,0,28158987,195525
OK,37,53,1035,37,2014-10-01T18:20:00,3,28159433,195525
OK,31,63,1035,31,2014-10-01T18:25:00,2,28159768,195525
OK,39,50,1035,39,2014-10-01T18:35:00,2,28160666,195525
OK,39,50,1035,39,2014-10-01T18:40:00,0,28161104,195525
OK,39,50,1035,39,2014-10-01T18:45:00,0,28161553,195525
OK,39,50,1035,39,2014-10-01T18:50:00,0,28161970,195525
OK,39,50,1035,39,2014-10-01T18:55:00,0,28162419,195525
OK,39,50,1035,39,2014-10-01T19:00:00,0,28162813,195525
OK,39,50,1035,39,2014-10-01T19:05:00,0,28163252,195525
OK,39,50,1035,39,2014-10-01T19:10:00,0,28163700,195525
OK,39,50,1035,39,2014-10-01T19:15:00,0,28164149,195525
OK,32,61,1035,32,2014-10-01T19:20:00,1,28164580,195525
OK,32,61,1035,32,2014-10-01T19:25:00,1,28165029,195525
OK,32,61,1035,32,2014-10-01T19:30:00,0,28165454,195525
OK,32,61,1035,32,2014-10-01T19:35:00,2,28165902,195525
OK,32,61,1035,32,2014-10-01T19:40:00,0,28166343,195525
OK,32,61,1035,32,2014-10-01T19:45:00,0,28166705,195525
OK,37,53,1035,37,2014-10-01T19:50:00,2,28167154,195525
OK,37,53,1035,37,2014-10-01T19:55:00,2,28167583,195525
OK,39,50,1035,39,2014-10-01T20:00:00,0,28168016,195525
OK,39,50,1035,39,2014-10-01T20:05:00,0,28168465,195525
OK,39,50,1035,39,2014-10-01T20:10:00,0,28168910,195525
OK,34,57,1035,34,2014-10-01T20:15:00,1,28169359,195525
OK,34,57,1035,34,2014-10-01T20:20:00,0,28169807,195525
OK,80,24,1035,80,2014-10-01T20:25:00,1,28170233,195525
OK,80,24,1035,80,2014-10-01T20:30:00,0,28170678,195525
OK,80,24,1035,80,2014-10-01T20:35:00,0,28171126,195525
OK,35,56,1035,35,2014-10-01T20:40:00,1,28171563,195525
OK,35,56,1035,35,2014-10-01T20:45:00,0,28172009,195525
OK,35,56,1035,35,2014-10-01T20:50:00,0,28172457,195525
OK,35,56,1035,35,2014-10-01T20:55:00,0,28172903,195525
OK,35,56,1035,35,2014-10-01T21:00:00,0,28173349,195525
OK,35,56,1035,35,2014-10-01T21:05:00,0,28173798,195525
OK,35,56,1035,35,2014-10-01T21:10:00,0,28174239,195525
OK,35,56,1035,35,2014-10-01T21:15:00,0,28174688,195525
OK,35,56,1035,35,2014-10-01T21:20:00,0,28175114,195525
OK,64,30,1035,64,2014-10-01T21:25:00,1,28175510,195525
OK,64,30,1035,64,2014-10-01T21:30:00,0,28175959,195525
OK,64,30,1035,64,2014-10-01T21:35:00,0,28176408,195525
OK,50,39,1035,50,2014-10-01T21:40:00,1,28176857,195525
OK,50,39,1035,50,2014-10-01T21:45:00,0,28177213,195525
OK,50,39,1035,50,2014-10-01T21:50:00,0,28177653,195525
OK,50,39,1035,50,2014-10-01T21:55:00,0,28178099,195525
OK,50,39,1035,50,2014-10-01T22:00:00,0,28178548,195525
OK,50,39,1035,50,2014-10-01T22:05:00,0,28178995,195525
OK,50,39,1035,50,2014-10-01T22:10:00,0,28179429,195525
OK,50,39,1035,50,2014-10-01T22:15:00,0,28179872,195525
OK,50,39,1035,50,2014-10-01T22:20:00,0,28180319,195525
OK,50,39,1035,50,2014-10-01T22:25:00,0,28180717,195525
OK,50,39,1035,50,2014-10-01T22:30:00,0,28181166,195525
OK,50,39,1035,50,2014-10-01T22:35:00,0,28181590,195525
OK,50,39,1035,50,2014-10-01T22:40:00,0,28182038,195525
OK,50,39,1035,50,2014-10-01T22:45:00,0,28182485,195525
OK,50,39,1035,50,2014-10-01T22:50:00,0,28182934,195525
OK,50,39,1035,50,2014-10-01T22:55:00,0,28183351,195525
OK,50,39,1035,50,2014-10-01T23:00:00,0,28183784,195525
OK,50,39,1035,50,2014-10-01T23:05:00,0,28184229,195525
OK,50,39,1035,50,2014-10-01T23:10:00,0,28184678,195525
OK,50,39,1035,50,2014-10-01T23:15:00,0,28185113,195525
OK,50,39,1035,50,2014-10-01T23:20:00,0,28185561,195525
OK,50,39,1035,50,2014-10-01T23:25:00,0,28185992,195525
OK,50,39,1035,50,2014-10-01T23:30:00,0,28186384,195525
OK,50,39,1035,50,2014-10-01T23:40:00,0,28187231,195525
OK,50,39,1035,50,2014-10-01T23:55:00,0,28188563,195525
OK,50,39,1035,50,2014-10-02T00:05:00,0,28189448,195525
OK,50,39,1035,50,2014-10-02T00:10:00,0,28189870,195525
OK,50,39,1035,50,2014-10-02T00:15:00,0,28190319,195525
OK,50,39,1035,50,2014-10-02T00:20:00,0,28190672,195525
OK,50,39,1035,50,2014-10-02T00:30:00,0,28191570,195525
OK,50,39,1035,50,2014-10-02T00:35:00,0,28191876,195525
OK,50,39,1035,50,2014-10-02T00:45:00,0,28192758,195525
OK,50,39,1035,50,2014-10-02T00:50:00,0,28193202,195525
OK,50,39,1035,50,2014-10-02T00:55:00,0,28193569,195525
OK,50,39,1035,50,2014-10-02T01:05:00,0,28194467,195525
OK,50,39,1035,50,2014-10-02T01:10:00,0,28194916,195525
OK,50,39,1035,50,2014-10-02T01:15:00,0,28195152,195525
OK,50,39,1035,50,2014-10-02T01:25:00,0,28196050,195525
OK,50,39,1035,50,2014-10-02T01:30:00,0,28196334,195525
OK,50,39,1035,50,2014-10-02T01:35:00,0,28196783,195525
OK,50,39,1035,50,2014-10-02T01:40:00,0,28197206,195525
OK,50,39,1035,50,2014-10-02T01:45:00,0,28197655,195525
OK,50,39,1035,50,2014-10-02T01:50:00,0,28198103,195525
OK,50,39,1035,50,2014-10-02T01:55:00,0,28198551,195525
OK,50,39,1035,50,2014-10-02T02:00:00,0,28199000,195525
OK,50,39,1035,50,2014-10-02T02:05:00,0,28199372,195525
OK,50,39,1035,50,2014-10-02T02:10:00,0,28199814,195525
OK,50,39,1035,50,2014-10-02T02:15:00,0,28200256,195525
OK,50,39,1035,50,2014-10-02T02:20:00,0,28200699,195525
OK,50,39,1035,50,2014-10-02T02:25:00,0,28201148,195525
OK,50,39,1035,50,2014-10-02T02:30:00,0,28201579,195525
OK,50,39,1035,50,2014-10-02T02:45:00,0,28202477,195525
OK,50,39,1035,50,2014-10-02T02:50:00,0,28202919,195525
OK,50,39,1035,50,2014-10-02T02:55:00,0,28203367,195525
OK,50,39,1035,50,2014-10-02T03:00:00,0,28203802,195525
OK,50,39,1035,50,2014-10-02T03:10:00,0,28204251,195525
OK,50,39,1035,50,2014-10-02T03:25:00,0,28204700,195525
OK,50,39,1035,50,2014-10-02T03:30:00,0,28205149,195525
OK,50,39,1035,50,2014-10-02T03:35:00,0,28205577,195525
OK,50,39,1035,50,2014-10-02T03:40:00,0,28206024,195525
OK,50,39,1035,50,2014-10-02T03:45:00,0,28206407,195525
OK,50,39,1035,50,2014-10-02T03:55:00,0,28207305,195525
OK,50,39,1035,50,2014-10-02T04:00:00,0,28207724,195525
OK,50,39,1035,50,2014-10-02T04:05:00,0,28208173,195525
OK,50,39,1035,50,2014-10-02T04:10:00,0,28208600,195525
OK,50,39,1035,50,2014-10-02T04:15:00,0,28209049,195525
OK,50,39,1035,50,2014-10-02T04:20:00,0,28209487,195525
OK,50,39,1035,50,2014-10-02T04:25:00,0,28209936,195525
OK,50,39,1035,50,2014-10-02T04:30:00,0,28210359,195525
OK,50,39,1035,50,2014-10-02T04:35:00,0,28210808,195525
OK,50,39,1035,50,2014-10-02T04:40:00,0,28211233,195525
OK,50,39,1035,50,2014-10-02T04:45:00,0,28211677,195525
OK,50,39,1035,50,2014-10-02T04:50:00,0,28212055,195525
OK,50,39,1035,50,2014-10-02T05:00:00,0,28212933,195525
OK,76,25,1035,76,2014-10-02T05:05:00,2,28213382,195525
OK,53,37,1035,53,2014-10-02T05:10:00,1,28213820,195525
OK,53,37,1035,53,2014-10-02T05:15:00,0,28214269,195525
OK,53,37,1035,53,2014-10-02T05:20:00,0,28214682,195525
OK,37,53,1035,37,2014-10-02T05:25:00,1,28215131,195525
OK,37,53,1035,37,2014-10-02T05:30:00,0,28215547,195525
OK,37,53,1035,37,2014-10-02T05:35:00,0,28215996,195525
OK,74,26,1035,74,2014-10-02T05:40:00,2,28216335,195525
OK,74,26,1035,74,2014-10-02T05:45:00,2,28216775,195525
OK,56,35,1035,56,2014-10-02T05:50:00,0,28217222,195525
OK,129,15,1035,129,2014-10-02T05:55:00,6,28217671,195525
OK,131,15,1035,131,2014-10-02T06:00:00,5,28218110,195525
OK,156,12,1035,156,2014-10-02T06:05:00,6,28218559,195525
OK,164,11,1035,164,2014-10-02T06:10:00,4,28218979,195525
OK,89,22,1035,89,2014-10-02T06:15:00,2,28219428,195525
OK,54,36,1035,54,2014-10-02T06:20:00,0,28219801,195525
OK,44,44,1035,44,2014-10-02T06:30:00,3,28220684,195525
OK,84,23,1035,84,2014-10-02T06:35:00,3,28221133,195525
OK,86,22,1035,86,2014-10-02T06:40:00,2,28221514,195525
OK,88,22,1035,88,2014-10-02T06:45:00,0,28221800,195525
OK,73,26,1035,73,2014-10-02T07:00:00,2,28222394,195525
OK,79,24,1035,79,2014-10-02T07:10:00,1,28223274,195525
OK,79,24,1035,79,2014-10-02T07:15:00,0,28223709,195525
OK,79,24,1035,79,2014-10-02T07:20:00,0,28224157,195525
OK,94,20,1035,94,2014-10-02T07:25:00,1,28224512,195525
OK,51,38,1035,51,2014-10-02T07:35:00,2,28225410,195525
OK,58,33,1035,58,2014-10-02T07:40:00,0,28225732,195525
OK,60,32,1035,60,2014-10-02T07:50:00,2,28226622,195525
OK,60,32,1035,60,2014-10-02T07:55:00,2,28227071,195525
OK,60,32,1035,60,2014-10-02T08:00:00,0,28227486,195525
OK,60,32,1035,60,2014-10-02T08:05:00,0,28227935,195525
OK,60,32,1035,60,2014-10-02T08:10:00,0,28228294,195525
OK,43,45,1035,43,2014-10-02T08:20:00,1,28229153,195525
OK,53,37,1035,53,2014-10-02T08:25:00,2,28229602,195525
OK,53,37,1035,53,2014-10-02T08:30:00,0,28229952,195525
OK,65,30,1035,65,2014-10-02T08:40:00,0,28230767,195525
OK,65,30,1035,65,2014-10-02T08:45:00,0,28231215,195525
OK,65,30,1035,65,2014-10-02T08:50:00,0,28231639,195525
OK,65,30,1035,65,2014-10-02T08:55:00,0,28232088,195525
OK,46,42,1035,46,2014-10-02T09:00:00,1,28232430,195525
OK,46,42,1035,46,2014-10-02T09:10:00,0,28232879,195525
OK,119,16,1035,119,2014-10-02T09:15:00,1,28233328,195525
OK,119,16,1035,119,2014-10-02T09:20:00,1,28233752,195525
OK,119,16,1035,119,2014-10-02T09:25:00,0,28234201,195525
OK,119,16,1035,119,2014-10-02T09:30:00,0,28234534,195525
OK,119,16,1035,119,2014-10-02T09:40:00,0,28235410,195525
OK,37,53,1035,37,2014-10-02T09:45:00,2,28235859,195525
OK,37,53,1035,37,2014-10-02T09:50:00,0,28236302,195525
OK,41,47,1035,41,2014-10-02T09:55:00,3,28236749,195525
OK,56,35,1035,56,2014-10-02T10:00:00,0,28237152,195525
OK,56,35,1035,56,2014-10-02T10:05:00,0,28237599,195525
OK,85,23,1035,85,2014-10-02T10:10:00,2,28238048,195525
OK,75,26,1035,75,2014-10-02T10:15:00,3,28238495,195525
OK,75,26,1035,75,2014-10-02T10:20:00,1,28238936,195525
OK,75,26,1035,75,2014-10-02T10:25:00,0,28239385,195525
OK,75,26,1035,75,2014-10-02T10:30:00,0,28239815,195525
OK,105,18,1035,105,2014-10-02T10:35:00,3,28240264,195525
OK,46,42,1035,46,2014-10-02T10:40:00,3,28240708,195525
OK,40,49,1035,40,2014-10-02T10:45:00,2,28241157,195525
OK,37,53,1035,37,2014-10-02T10:50:00,1,28241589,195525
OK,44,44,1035,44,2014-10-02T10:55:00,2,28242037,195525
OK,44,44,1035,44,2014-10-02T11:00:00,0,28242433,195525
OK,44,44,1035,44,2014-10-02T11:05:00,0,28242882,195525
OK,57,34,1035,57,2014-10-02T11:10:00,3,28243331,195525
OK,42,46,1035,42,2014-10-02T11:15:00,1,28243656,195525
OK,42,46,1035,42,2014-10-02T11:20:00,0,28244094,195525
OK,42,46,1035,42,2014-10-02T11:25:00,0,28244523,195525
OK,42,46,1035,42,2014-10-02T11:30:00,0,28244972,195525
OK,50,39,1035,50,2014-10-02T11:35:00,0,28245421,195525
OK,50,39,1035,50,2014-10-02T11:40:00,0,28245827,195525
OK,50,39,1035,50,2014-10-02T11:45:00,0,28246276,195525
OK,118,16,1035,118,2014-10-02T11:50:00,4,28246713,195525
OK,127,15,1035,127,2014-10-02T11:55:00,6,28247162,195525
OK,61,32,1035,61,2014-10-02T12:00:00,2,28247608,195525
OK,51,38,1035,51,2014-10-02T12:05:00,1,28248038,195525
OK,51,38,1035,51,2014-10-02T12:10:00,0,28248487,195525
OK,64,30,1035,64,2014-10-02T12:15:00,4,28248934,195525
OK,48,40,1035,48,2014-10-02T12:20:00,3,28249362,195525
OK,45,43,1035,45,2014-10-02T12:25:00,0,28249806,195525
OK,45,43,1035,45,2014-10-02T12:30:00,0,28250225,195525
OK,52,37,1035,52,2014-10-02T12:35:00,3,28250623,195525
OK,215,9,1035,215,2014-10-02T13:20:00,3,28251948,195525
OK,182,10,1035,182,2014-10-02T13:30:00,5,28252532,195525
OK,162,12,1035,162,2014-10-02T13:35:00,1,28252974,195525
OK,162,12,1035,162,2014-10-02T13:40:00,0,28253391,195525
OK,145,13,1035,145,2014-10-02T13:50:00,1,28254245,195525
OK,141,13,1035,141,2014-10-02T13:55:00,3,28254566,195525
OK,135,14,1035,135,2014-10-02T14:10:00,1,28255143,195525
OK,117,16,1035,117,2014-10-02T14:15:00,2,28255592,195525
OK,277,7,1035,277,2014-10-02T14:20:00,1,28256020,195525
OK,277,7,1035,277,2014-10-02T14:25:00,1,28256469,195525
OK,248,7,1035,248,2014-10-02T14:30:00,2,28256897,195525
OK,239,8,1035,239,2014-10-02T14:35:00,1,28257346,195525
OK,69,28,1035,69,2014-10-02T14:40:00,1,28257787,195525
OK,76,25,1035,76,2014-10-02T14:45:00,2,28258235,195525
OK,77,25,1035,77,2014-10-02T14:50:00,2,28258668,195525
OK,70,28,1035,70,2014-10-02T14:55:00,0,28259114,195525
OK,50,39,1035,50,2014-10-02T15:00:00,1,28259563,195525
OK,50,39,1035,50,2014-10-02T15:05:00,1,28260010,195525
OK,65,30,1035,65,2014-10-02T15:10:00,1,28260443,195525
OK,88,22,1035,88,2014-10-02T15:15:00,1,28260892,195525
OK,88,22,1035,88,2014-10-02T15:20:00,1,28261332,195525
OK,52,37,1035,52,2014-10-02T15:25:00,2,28261714,195525
OK,52,37,1035,52,2014-10-02T15:40:00,0,28263037,195525
OK,52,37,1035,52,2014-10-02T15:45:00,0,28263475,195525
OK,52,37,1035,52,2014-10-02T15:50:00,0,28263916,195525
OK,52,37,1035,52,2014-10-02T15:55:00,0,28264318,195525
OK,52,37,1035,52,2014-10-02T16:00:00,0,28264767,195525
OK,52,37,1035,52,2014-10-02T16:05:00,0,28265205,195525
OK,66,29,1035,66,2014-10-02T16:10:00,1,28265645,195525
OK,66,29,1035,66,2014-10-02T16:15:00,0,28266041,195525
OK,56,35,1035,56,2014-10-02T16:20:00,2,28266490,195525
OK,66,29,1035,66,2014-10-02T16:25:00,2,28266939,195525
OK,70,28,1035,70,2014-10-02T16:30:00,1,28267262,195525
OK,70,28,1035,70,2014-10-02T16:40:00,0,28268160,195525
OK,70,28,1035,70,2014-10-02T16:45:00,0,28268602,195525
OK,70,28,1035,70,2014-10-02T16:50:00,0,28269051,195525
OK,45,43,1035,45,2014-10-02T16:55:00,1,28269500,195525
OK,45,43,1035,45,2014-10-02T17:00:00,1,28269935,195525
OK,45,43,1035,45,2014-10-02T17:05:00,0,28270384,195525
OK,45,43,1035,45,2014-10-02T17:10:00,0,28270818,195525
OK,45,43,1035,45,2014-10-02T17:15:00,0,28271267,195525
OK,45,43,1035,45,2014-10-02T17:20:00,0,28271697,195525